Powrót do katalogu

COSMOS 2251 DEB

AktywnyLEO
NORAD 35593·DEBRIS·🇷🇺 Russia

Wystrzelony Jun 16, 1993 z Plesetsk Cosmodrome

Loading…

Następne Przeloty (najbliższe 24 godziny)

TLE

ŚwieżeSource: Space-Track

Epoka: Sep 14, 2026, 22:49 UTC

1 35593U 93036AML 26257.95126920  .00001527  00000-0  60696-3 0  9997
2 35593  74.0846 150.7979 0102686  88.9278 272.3633 14.26649841890030

Śledź COSMOS 2251 DEB w czasie rzeczywistym z AllMySat

Download on the App Store